Weather History for KPNC - February, 2013

Change the Weather History Date:

Friday, February 8, 2013

  Actual Average (WUND) Record (WUND)
Temperature  
Mean Temperature 36 °F -  
Max Temperature 46 °F - - (-1)
Min Temperature 27 °F - - (-1)
Degree Days  
Heating Degree Days 28    
Moisture  
Dew Point 29 °F    
Average Humidity 79    
Maximum Humidity 100    
Minimum Humidity 52    
Precipitation  
Precipitation 0.00 in - - ()
Sea Level Pressure  
Sea Level Pressure 30.26 in    
Wind  
Wind Speed 6 mph (ENE)    
Max Wind Speed 10 mph    
Max Gust Speed -    
Visibility 6 miles    
Events      
Averages and records for this station are not official NWS values.
T = Trace of Precipitation, MM = Missing Value Source: NWS Daily Summary

Daily Weather History Graph

Daily Weather History Graph

Search for Another Location

Airport or City:

Trip Planner

Search our weather history database for the weather conditions in past years. The results will help you decide how hot, cold, wet, or windy it might be!

Date:

Astronomy

Feb. 08, 2013 Rise Set
Actual Time 7:23 AM CST 6:01 PM CST
Civil Twilight 6:56 AM CST 6:28 PM CST
Nautical Twilight 6:26 AM CST 6:59 PM CST
Astronomical Twilight 5:56 AM CST 7:29 PM CST
Moon 5:52 AM CST (2/8) 4:37 PM CST (2/8)
Length of Visible Light 11h 31m
Length of Day
10h 38m
Waning Crescent, 3% of the Moon is Illuminated
Feb 8
Waning Crescent
Feb 10
New
Feb 17
First Quarter
Feb 25
Full
Mar 4
Last Quarter

Hourly Weather History & Observations

Time (CST) Temp. Windchill Dew Point Humidity Pressure Visibility Wind Dir Wind Speed Gust Speed Precip Events Conditions
12:53 AM 36.0 °F - 28.9 °F 76% 30.21 in 10.0 mi Calm Calm - N/A   Clear
1:53 AM 33.1 °F 28.7 °F 27.0 °F 78% 30.22 in 10.0 mi North 4.6 mph - N/A   Clear
2:53 AM 30.9 °F 24.3 °F 27.0 °F 85% 30.24 in 10.0 mi North 6.9 mph - N/A   Clear
3:53 AM 30.9 °F 24.3 °F 27.0 °F 85% 30.25 in 10.0 mi NNE 6.9 mph - N/A   Clear
4:53 AM 27.0 °F 18.7 °F 24.1 °F 89% 30.26 in 8.0 mi North 8.1 mph - N/A   Clear
5:53 AM 28.0 °F 24.2 °F 25.0 °F 88% 30.27 in 8.0 mi ENE 3.5 mph - N/A   Clear
6:29 AM 28.4 °F 19.7 °F 24.8 °F 86% 30.27 in 2.5 mi ENE 9.2 mph - N/A   Scattered Clouds
6:34 AM 28.4 °F 20.4 °F 26.6 °F 93% 30.27 in 1.2 mi ENE 8.1 mph - N/A   Mostly Cloudy
6:53 AM 28.0 °F 20.8 °F 27.0 °F 96% 30.29 in 1.0 mi ENE 6.9 mph - N/A   Mist
7:23 AM 28.4 °F 20.4 °F 28.4 °F 100% 30.28 in 2.0 mi NE 8.1 mph - N/A   Overcast
7:32 AM 28.4 °F 20.4 °F 28.4 °F 100% 30.29 in 1.5 mi NE 8.1 mph - N/A   Overcast
7:53 AM 28.9 °F 21.1 °F 28.0 °F 96% 30.31 in 1.5 mi NE 8.1 mph - N/A   Overcast
8:09 AM 30.2 °F 21.3 °F 28.4 °F 93% 30.29 in 2.5 mi ENE 10.4 mph - N/A   Overcast
8:53 AM 30.9 °F 24.3 °F 28.9 °F 92% 30.32 in 2.5 mi East 6.9 mph - N/A   Overcast
9:01 AM 30.2 °F 21.3 °F 28.4 °F 93% 30.31 in 3.0 mi East 10.4 mph - N/A   Overcast
9:53 AM 32.0 °F 25.6 °F 30.0 °F 92% 30.33 in 4.0 mi East 6.9 mph - N/A   Overcast
10:04 AM 33.8 °F 29.6 °F 28.4 °F 81% 30.33 in 4.0 mi ENE 4.6 mph - N/A   Overcast
10:53 AM 33.8 °F 27.7 °F 30.2 °F 87% 30.34 in 4.0 mi Variable 6.9 mph - N/A   Overcast
11:44 AM 35.6 °F 32.8 °F 28.4 °F 75% 30.34 in 5.0 mi ENE 3.5 mph - N/A   Haze
11:53 AM 37.0 °F - 30.0 °F 76% 30.36 in 6.0 mi Calm Calm - N/A   Haze
12:31 PM 41.0 °F 35.8 °F 30.2 °F 65% 30.31 in 7.0 mi ENE 8.1 mph - N/A   Partly Cloudy
12:53 PM 42.1 °F 40.2 °F 30.9 °F 65% 30.32 in 7.0 mi Variable 3.5 mph - N/A   Clear
1:53 PM 44.1 °F 40.8 °F 30.0 °F 58% 30.29 in 7.0 mi ESE 5.8 mph - N/A   Clear
2:53 PM 46.0 °F 44.8 °F 30.9 °F 56% 30.25 in 6.0 mi ENE 3.5 mph - N/A   Haze
3:53 PM 46.0 °F 41.9 °F 30.9 °F 56% 30.23 in 7.0 mi ESE 8.1 mph - N/A   Clear
4:53 PM 46.9 °F - 30.0 °F 52% 30.22 in 9.0 mi ESE 6.9 mph - N/A   Clear
5:53 PM 44.1 °F 42.5 °F 30.0 °F 58% 30.22 in 9.0 mi East 3.5 mph - N/A   Clear
6:53 PM 42.1 °F 38.4 °F 30.9 °F 65% 30.20 in 10.0 mi East 5.8 mph - N/A   Clear
7:53 PM 41.0 °F 35.8 °F 30.9 °F 67% 30.19 in 10.0 mi East 8.1 mph - N/A   Clear
8:53 PM 39.9 °F 36.7 °F 30.9 °F 70% 30.19 in 10.0 mi East 4.6 mph - N/A   Clear
9:53 PM 39.0 °F 34.0 °F 30.9 °F 73% 30.18 in 9.0 mi ESE 6.9 mph - N/A   Clear
10:53 PM 39.0 °F 33.4 °F 30.9 °F 73% 30.17 in 8.0 mi SE 8.1 mph - N/A   Clear
11:53 PM 37.9 °F 32.7 °F 30.9 °F 76% 30.17 in 8.0 mi SE 6.9 mph - N/A   Clear